| time (UTC) | temp F | wind direction | speed MPH | gust MPH | rain 1hr in | rain 24hr in | rain mn in | humidity % | barometer mb |
| 20260903125026 | 77 | 309 | 0.0 | 2.0 | 0.00 | 0.00 | 0.00 | 71 | 1015.4 |
| 20260903124521 | 76 | 22 | 0.0 | 2.0 | 0.00 | 0.00 | 0.00 | 71 | 1015.4 |
| 20260903124021 | 76 | 244 | 1.0 | 3.0 | 0.00 | 0.00 | 0.00 | 71 | 1015.3 |
| 20260903123515 | 76 | 284 | 0.0 | 3.0 | 0.00 | 0.00 | 0.00 | 71 | 1015.4 |
| 20260903123014 | 76 | 195 | 2.0 | 4.0 | 0.00 | 0.00 | 0.00 | 72 | 1015.4 |
| 20260903122514 | 76 | 29 | 0.0 | 2.0 | 0.00 | 0.00 | 0.00 | 72 | 1015.3 |
| 20260903122013 | 76 | 0 | 1.0 | 2.0 | 0.00 | 0.00 | 0.00 | 72 | 1015.2 |
| 20260903121508 | 75 | 15 | 0.0 | 2.0 | 0.00 | 0.00 | 0.00 | 72 | 1015.2 |
| 20260903121004 | 75 | 348 | 0.0 | 4.0 | 0.00 | 0.00 | 0.00 | 72 | 1015.1 |
| 20260903120503 | 75 | 15 | 2.0 | 2.0 | 0.00 | 0.00 | 0.00 | 72 | 1015.1 |
| 20260903120003 | 75 | 2 | 1.0 | 2.0 | 0.00 | 0.00 | 0.00 | 71 | 1014.8 |
| 20260903115502 | 76 | 242 | 2.0 | 2.0 | 0.00 | 0.00 | 0.00 | 71 | 1014.8 |
| 20260903115001 | 76 | 357 | 0.0 | 2.0 | 0.00 | 0.00 | 0.00 | 71 | 1015.0 |
| 20260903114457 | 76 | 193 | 0.0 | 3.0 | 0.00 | 0.00 | 0.00 | 71 | 1014.8 |
| 20260903113953 | 75 | 225 | 0.0 | 3.0 | 0.00 | 0.00 | 0.00 | 71 | 1014.7 |
| 20260903113448 | 76 | 205 | 0.0 | 2.0 | 0.00 | 0.00 | 0.00 | 71 | 1014.9 |
| 20260903112944 | 76 | 107 | 0.0 | 2.0 | 0.00 | 0.00 | 0.00 | 71 | 1014.7 |
| 20260903112440 | 75 | 0 | 0.0 | 2.0 | 0.00 | 0.00 | 0.00 | 71 | 1014.9 |
| 20260903111939 | 75 | 316 | 1.0 | 1.0 | 0.00 | 0.00 | 0.00 | 71 | 1014.8 |
| 20260903111439 | 75 | 327 | 0.0 | 1.0 | 0.00 | 0.00 | 0.00 | 70 | 1014.8 |
| 20260903110935 | 76 | 297 | 0.0 | 2.0 | 0.00 | 0.00 | 0.00 | 70 | 1015.0 |
| 20260903110431 | 76 | 44 | 0.0 | 1.0 | 0.00 | 0.00 | 0.00 | 70 | 1015.1 |
| 20260903105925 | 76 | 269 | 0.0 | 1.0 | 0.00 | 0.00 | 0.00 | 69 | 1014.9 |
| 20260903105421 | 76 | 309 | 0.0 | 1.0 | 0.00 | 0.00 | 0.00 | 69 | 1014.6 |
| 20260903104920 | 76 | 247 | 1.0 | 1.0 | 0.00 | 0.00 | 0.00 | 69 | 1014.8 |
| 20260903104419 | 76 | 339 | 0.0 | 2.0 | 0.00 | 0.00 | 0.00 | 68 | 1015.1 |
| 20260903103917 | 76 | 338 | 0.0 | 2.0 | 0.00 | 0.00 | 0.00 | 68 | 1015.0 |
| 20260903103413 | 76 | 335 | 0.0 | 2.0 | 0.00 | 0.00 | 0.00 | 67 | 1015.1 |
| 20260903102908 | 77 | 291 | 0.0 | 2.0 | 0.00 | 0.00 | 0.00 | 67 | 1014.9 |
| 20260903102402 | 77 | 29 | 0.0 | 2.0 | 0.00 | 0.00 | 0.00 | 66 | 1015.2 |
| 20260903101902 | 77 | 15 | 0.0 | 1.0 | 0.00 | 0.00 | 0.00 | 66 | 1015.0 |
| 20260903101357 | 77 | 283 | 0.0 | 2.0 | 0.00 | 0.00 | 0.00 | 65 | 1015.0 |
| 20260903100852 | 78 | 350 | 0.0 | 2.0 | 0.00 | 0.00 | 0.00 | 65 | 1015.1 |
| 20260903100347 | 78 | 311 | 0.0 | 3.0 | 0.00 | 0.00 | 0.00 | 64 | 1015.0 |
| 20260903095845 | 78 | 329 | 1.0 | 2.0 | 0.00 | 0.00 | 0.00 | 64 | 1014.9 |
| 20260903095344 | 78 | 286 | 0.0 | 2.0 | 0.00 | 0.00 | 0.00 | 63 | 1015.2 |
| 20260903094840 | 78 | 219 | 0.0 | 2.0 | 0.00 | 0.00 | 0.00 | 63 | 1015.1 |
| 20260903094339 | 78 | 288 | 0.0 | 3.0 | 0.00 | 0.00 | 0.00 | 62 | 1015.0 |
| 20260903093835 | 79 | 357 | 0.0 | 2.0 | 0.00 | 0.00 | 0.00 | 62 | 1015.0 |
| 20260903093330 | 79 | 357 | 0.0 | 3.0 | 0.00 | 0.00 | 0.00 | 61 | 1014.8 |
| 20260903092826 | 79 | 49 | 0.0 | 2.0 | 0.00 | 0.00 | 0.00 | 61 | 1014.8 |
| 20260903092320 | 79 | 315 | 0.0 | 4.0 | 0.00 | 0.00 | 0.00 | 61 | 1014.9 |
| 20260903091819 | 79 | 286 | 0.0 | 2.0 | 0.00 | 0.00 | 0.00 | 60 | 1014.8 |
| 20260903091313 | 79 | 296 | 0.0 | 3.0 | 0.00 | 0.00 | 0.00 | 60 | 1014.8 |
| 20260903090809 | 79 | 299 | 1.0 | 3.0 | 0.00 | 0.00 | 0.00 | 60 | 1014.8 |
| 20260903090308 | 79 | 336 | 0.0 | 2.0 | 0.00 | 0.00 | 0.00 | 60 | 1014.8 |
| 20260903085807 | 79 | 98 | 0.0 | 3.0 | 0.00 | 0.00 | 0.00 | 60 | 1014.8 |
| 20260903085305 | 79 | 289 | 0.0 | 3.0 | 0.00 | 0.00 | 0.00 | 60 | 1014.8 |
| 20260903084800 | 79 | 333 | 0.0 | 2.0 | 0.00 | 0.00 | 0.00 | 59 | 1014.8 |
| 20260903084300 | 80 | 22 | 0.0 | 2.0 | 0.00 | 0.00 | 0.00 | 58 | 1014.7 |
| 20260903083755 | 80 | 342 | 2.0 | 2.0 | 0.00 | 0.00 | 0.00 | 58 | 1014.7 |
| 20260903083250 | 80 | 255 | 2.0 | 2.0 | 0.00 | 0.00 | 0.00 | 58 | 1014.5 |
| 20260903082749 | 80 | 157 | 2.0 | 4.0 | 0.00 | 0.00 | 0.00 | 58 | 1014.7 |
| 20260903082245 | 80 | 283 | 0.0 | 2.0 | 0.00 | 0.00 | 0.00 | 57 | 1014.2 |
| 20260903081745 | 80 | 171 | 2.0 | 2.0 | 0.00 | 0.00 | 0.00 | 57 | 1014.6 |
| 20260903081241 | 80 | 305 | 1.0 | 3.0 | 0.00 | 0.00 | 0.00 | 56 | 1014.6 |
| 20260903080737 | 80 | 294 | 1.0 | 2.0 | 0.00 | 0.00 | 0.00 | 56 | 1014.6 |
| 20260903080234 | 80 | 243 | 2.0 | 5.0 | 0.00 | 0.00 | 0.00 | 56 | 1014.6 |
| 20260903075734 | 80 | 351 | 0.0 | 3.0 | 0.00 | 0.00 | 0.00 | 56 | 1014.2 |
| 20260903075229 | 80 | 267 | 3.0 | 4.0 | 0.00 | 0.00 | 0.00 | 56 | 1014.5 |
| 20260903074728 | 80 | 68 | 1.0 | 3.0 | 0.00 | 0.00 | 0.00 | 56 | 1014.3 |
| 20260903074223 | 80 | 358 | 0.0 | 2.0 | 0.00 | 0.00 | 0.00 | 56 | 1014.5 |
| 20260903073719 | 80 | 28 | 0.0 | 2.0 | 0.00 | 0.00 | 0.00 | 55 | 1014.7 |
| 20260903073219 | 81 | 47 | 1.0 | 2.0 | 0.00 | 0.00 | 0.00 | 55 | 1014.7 |
| 20260903072715 | 81 | 18 | 0.0 | 4.0 | 0.00 | 0.00 | 0.00 | 55 | 1014.3 |
| 20260903072211 | 81 | 320 | 1.0 | 2.0 | 0.00 | 0.00 | 0.00 | 54 | 1014.6 |
| 20260903071707 | 81 | 260 | 1.0 | 2.0 | 0.00 | 0.00 | 0.00 | 54 | 1014.3 |
| 20260903071203 | 81 | 300 | 2.0 | 2.0 | 0.00 | 0.00 | 0.00 | 54 | 1014.6 |
| 20260903070702 | 81 | 358 | 1.0 | 2.0 | 0.00 | 0.00 | 0.00 | 54 | 1014.5 |
| 20260903070158 | 82 | 118 | 0.0 | 2.0 | 0.00 | 0.00 | 0.00 | 53 | 1014.6 |
| 20260903065653 | 82 | 31 | 1.0 | 3.0 | 0.00 | 0.00 | 0.00 | 53 | 1014.5 |
| 20260903065153 | 82 | 193 | 0.0 | 3.0 | 0.00 | 0.00 | 0.00 | 53 | 1014.5 |
| 20260903064652 | 82 | 256 | 0.0 | 2.0 | 0.00 | 0.00 | 0.00 | 53 | 1014.3 |
| 20260903064148 | 82 | 300 | 0.0 | 2.0 | 0.00 | 0.00 | 0.00 | 52 | 1014.3 |
| 20260903063643 | 82 | 357 | 2.0 | 6.0 | 0.00 | 0.00 | 0.00 | 52 | 1014.3 |
| 20260903063138 | 82 | 94 | 1.0 | 2.0 | 0.00 | 0.00 | 0.00 | 52 | 1014.2 |
| 20260903062634 | 82 | 46 | 1.0 | 2.0 | 0.00 | 0.00 | 0.00 | 52 | 1014.1 |
| 20260903062129 | 82 | 322 | 0.0 | 3.0 | 0.00 | 0.00 | 0.00 | 52 | 1014.2 |
| 20260903061624 | 82 | 6 | 2.0 | 2.0 | 0.00 | 0.00 | 0.00 | 51 | 1014.2 |
| 20260903061123 | 82 | 70 | 0.0 | 2.0 | 0.00 | 0.00 | 0.00 | 51 | 1014.2 |
| 20260903060618 | 82 | 355 | 0.0 | 2.0 | 0.00 | 0.00 | 0.00 | 51 | 1014.1 |
| 20260903060114 | 82 | 28 | 1.0 | 2.0 | 0.00 | 0.00 | 0.00 | 51 | 1014.1 |
| 20260903055611 | 82 | 333 | 0.0 | 2.0 | 0.00 | 0.00 | 0.00 | 51 | 1014.1 |
| 20260903055109 | 83 | 16 | 1.0 | 3.0 | 0.00 | 0.00 | 0.00 | 50 | 1014.3 |
| 20260903054604 | 83 | 321 | 1.0 | 2.0 | 0.00 | 0.00 | 0.00 | 50 | 1014.1 |
| 20260903054101 | 83 | 25 | 0.0 | 1.0 | 0.00 | 0.00 | 0.00 | 50 | 1014.3 |
| 20260903053556 | 83 | 8 | 1.0 | 2.0 | 0.00 | 0.00 | 0.00 | 50 | 1014.1 |
| 20260903053052 | 83 | 29 | 0.0 | 2.0 | 0.00 | 0.00 | 0.00 | 50 | 1014.2 |
| 20260903052548 | 83 | 64 | 2.0 | 2.0 | 0.00 | 0.00 | 0.00 | 49 | 1014.3 |
| 20260903052043 | 83 | 354 | 0.0 | 2.0 | 0.00 | 0.00 | 0.00 | 49 | 1014.1 |
| 20260903051542 | 83 | 11 | 1.0 | 2.0 | 0.00 | 0.00 | 0.00 | 49 | 1014.0 |
| 20260903051038 | 83 | 48 | 1.0 | 2.0 | 0.00 | 0.00 | 0.00 | 49 | 1014.2 |
| 20260903050537 | 83 | 343 | 0.0 | 2.0 | 0.00 | 0.00 | 0.00 | 49 | 1014.2 |
| 20260903050033 | 83 | 45 | 0.0 | 1.0 | 0.00 | 0.00 | 0.00 | 49 | 1014.2 |
| 20260903045532 | 83 | 44 | 0.0 | 1.0 | 0.00 | 0.00 | 0.00 | 49 | 1014.2 |
| 20260903045029 | 83 | 51 | 1.0 | 2.0 | 0.00 | 0.00 | 0.00 | 49 | 1014.0 |
| 20260903044525 | 84 | 36 | 0.0 | 2.0 | 0.00 | 0.00 | 0.00 | 48 | 1014.0 |
| 20260903044020 | 84 | 355 | 0.0 | 2.0 | 0.00 | 0.00 | 0.00 | 48 | 1014.2 |
| 20260903043516 | 84 | 339 | 0.0 | 1.0 | 0.00 | 0.00 | 0.00 | 48 | 1014.0 |
| 20260903043015 | 84 | 80 | 0.0 | 2.0 | 0.00 | 0.00 | 0.00 | 48 | 1014.0 |
| 20260903042510 | 85 | 7 | 0.0 | 2.0 | 0.00 | 0.00 | 0.00 | 47 | 1014.2 |
| 20260903042006 | 85 | 319 | 0.0 | 2.0 | 0.00 | 0.00 | 0.00 | 47 | 1013.9 |
| 20260903041502 | 85 | 22 | 0.0 | 1.0 | 0.00 | 0.00 | 0.00 | 47 | 1014.2 |
| 20260903040957 | 85 | 322 | 0.0 | 1.0 | 0.00 | 0.00 | 0.00 | 46 | 1014.3 |
| 20260903040456 | 85 | 84 | 0.0 | 2.0 | 0.00 | 0.00 | 0.00 | 46 | 1014.2 |
| 20260903035953 | 86 | 46 | 2.0 | 2.0 | 0.00 | 0.00 | 0.00 | 46 | 1014.1 |
| 20260903035448 | 86 | 44 | 2.0 | 2.0 | 0.00 | 0.00 | 0.00 | 46 | 1014.1 |
| 20260903034943 | 86 | 55 | 1.0 | 2.0 | 0.00 | 0.00 | 0.00 | 46 | 1014.2 |
| 20260903034438 | 86 | 32 | 0.0 | 1.0 | 0.00 | 0.00 | 0.00 | 46 | 1014.3 |
| 20260903033933 | 86 | 315 | 0.0 | 2.0 | 0.00 | 0.00 | 0.00 | 46 | 1013.9 |
| 20260903033428 | 86 | 333 | 0.0 | 1.0 | 0.00 | 0.00 | 0.00 | 46 | 1014.1 |
| 20260903032929 | 86 | 347 | 0.0 | 2.0 | 0.00 | 0.00 | 0.00 | 46 | 1013.9 |
| 20260903032424 | 87 | 75 | 0.0 | 2.0 | 0.00 | 0.00 | 0.00 | 46 | 1014.0 |
| 20260903031919 | 87 | 41 | 1.0 | 2.0 | 0.00 | 0.00 | 0.00 | 45 | 1014.1 |
| 20260903031419 | 87 | 67 | 0.0 | 2.0 | 0.00 | 0.00 | 0.00 | 45 | 1014.1 |
| 20260903030914 | 87 | 315 | 0.0 | 2.0 | 0.00 | 0.00 | 0.00 | 45 | 1014.1 |
| 20260903030410 | 87 | 55 | 0.0 | 2.0 | 0.00 | 0.00 | 0.00 | 45 | 1014.0 |
| 20260903025906 | 87 | 35 | 2.0 | 2.0 | 0.00 | 0.00 | 0.00 | 45 | 1013.9 |
| 20260903025401 | 87 | 333 | 1.0 | 2.0 | 0.00 | 0.00 | 0.00 | 45 | 1013.9 |
| 20260903024856 | 87 | 28 | 1.0 | 2.0 | 0.00 | 0.00 | 0.00 | 45 | 1014.0 |
| 20260903024356 | 87 | 67 | 1.0 | 2.0 | 0.00 | 0.00 | 0.00 | 45 | 1014.1 |
| 20260903023851 | 87 | 24 | 0.0 | 2.0 | 0.00 | 0.00 | 0.00 | 45 | 1013.7 |
| 20260903023347 | 87 | 60 | 1.0 | 2.0 | 0.00 | 0.00 | 0.00 | 44 | 1013.6 |
| 20260903022841 | 88 | 83 | 1.0 | 2.0 | 0.00 | 0.00 | 0.00 | 44 | 1013.7 |
| 20260903022341 | 88 | 74 | 2.0 | 2.0 | 0.00 | 0.00 | 0.00 | 44 | 1013.6 |
| 20260903021839 | 88 | 15 | 0.0 | 2.0 | 0.00 | 0.00 | 0.00 | 44 | 1013.8 |
| 20260903021336 | 88 | 38 | 1.0 | 2.0 | 0.00 | 0.00 | 0.00 | 43 | 1013.6 |
| 20260903020835 | 89 | 338 | 0.0 | 2.0 | 0.00 | 0.00 | 0.00 | 43 | 1013.4 |
| 20260903020330 | 89 | 311 | 0.0 | 2.0 | 0.00 | 0.00 | 0.00 | 43 | 1013.3 |
| 20260903015825 | 89 | 38 | 0.0 | 2.0 | 0.00 | 0.00 | 0.00 | 43 | 1013.3 |
| 20260903015321 | 89 | 25 | 0.0 | 2.0 | 0.00 | 0.00 | 0.00 | 42 | 1013.3 |
| 20260903014816 | 89 | 357 | 0.0 | 2.0 | 0.00 | 0.00 | 0.00 | 42 | 1013.3 |
| 20260903014316 | 90 | 6 | 0.0 | 2.0 | 0.00 | 0.00 | 0.00 | 42 | 1013.0 |
| 20260903013811 | 90 | 203 | 0.0 | 2.0 | 0.00 | 0.00 | 0.00 | 42 | 1013.3 |
| 20260903013310 | 90 | 50 | 0.0 | 2.0 | 0.00 | 0.00 | 0.00 | 41 | 1013.1 |
| 20260903012809 | 91 | 345 | 0.0 | 2.0 | 0.00 | 0.00 | 0.00 | 41 | 1013.2 |
| 20260903012306 | 91 | 315 | 0.0 | 2.0 | 0.00 | 0.00 | 0.00 | 40 | 1013.0 |
| 20260903011803 | 92 | 72 | 0.0 | 2.0 | 0.00 | 0.00 | 0.00 | 40 | 1012.9 |
| 20260903011302 | 92 | 345 | 0.0 | 2.0 | 0.00 | 0.00 | 0.00 | 40 | 1013.0 |
| 20260903010758 | 92 | 219 | 1.0 | 2.0 | 0.00 | 0.00 | 0.00 | 39 | 1012.9 |
| 20260903010254 | 92 | 344 | 1.0 | 2.0 | 0.00 | 0.00 | 0.00 | 39 | 1012.9 |
| 20260903005752 | 93 | 110 | 0.0 | 2.0 | 0.00 | 0.00 | 0.00 | 38 | 1012.8 |
| 20260903005247 | 93 | 336 | 2.0 | 2.0 | 0.00 | 0.00 | 0.00 | 38 | 1012.8 |
| 20260903004742 | 94 | 320 | 0.0 | 2.0 | 0.00 | 0.00 | 0.00 | 37 | 1013.0 |
| 20260903004238 | 94 | 57 | 2.0 | 4.0 | 0.00 | 0.00 | 0.00 | 36 | 1012.9 |
| 20260903003733 | 95 | 9 | 2.0 | 4.0 | 0.00 | 0.00 | 0.00 | 36 | 1012.8 |
| 20260903003228 | 95 | 96 | 2.0 | 3.0 | 0.00 | 0.00 | 0.00 | 35 | 1012.9 |
| 20260903002723 | 96 | 79 | 3.0 | 3.0 | 0.00 | 0.00 | 0.00 | 34 | 1013.0 |
| 20260903002217 | 97 | 62 | 1.0 | 5.0 | 0.00 | 0.00 | 0.00 | 33 | 1013.0 |
| 20260903001713 | 97 | 26 | 3.0 | 3.0 | 0.00 | 0.00 | 0.00 | 33 | 1013.1 |
| 20260903001212 | 97 | 61 | 1.0 | 2.0 | 0.00 | 0.00 | 0.00 | 33 | 1013.1 |
| 20260903000708 | 98 | 38 | 2.0 | 3.0 | 0.00 | 0.00 | 0.00 | 33 | 1012.6 |
| 20260903000207 | 99 | 53 | 1.0 | 3.0 | 0.00 | 0.00 | 0.00 | 31 | 1012.9 |
| 20260902235706 | 100 | 13 | 2.0 | 3.0 | 0.00 | 0.00 | 0.00 | 31 | 1013.0 |
| 20260902235201 | 100 | 121 | 2.0 | 2.0 | 0.00 | 0.00 | 0.00 | 30 | 1012.8 |
| 20260902234701 | 101 | 356 | 0.0 | 3.0 | 0.00 | 0.00 | 0.00 | 29 | 1012.9 |
| 20260902234159 | 101 | 0 | 2.0 | 2.0 | 0.00 | 0.00 | 0.00 | 29 | 1012.9 |
| 20260902233654 | 102 | 345 | 2.0 | 4.0 | 0.00 | 0.00 | 0.00 | 29 | 1013.0 |
| 20260902233154 | 101 | 318 | 0.0 | 3.0 | 0.00 | 0.00 | 0.00 | 28 | 1013.0 |
| 20260902232653 | 102 | 4 | 0.0 | 3.0 | 0.00 | 0.00 | 0.00 | 28 | 1013.1 |
| 20260902232153 | 102 | 230 | 2.0 | 3.0 | 0.00 | 0.00 | 0.00 | 27 | 1013.0 |
| 20260902231647 | 102 | 19 | 1.0 | 4.0 | 0.00 | 0.00 | 0.00 | 27 | 1013.2 |
| 20260902231142 | 102 | 256 | 1.0 | 6.0 | 0.00 | 0.00 | 0.00 | 27 | 1013.0 |
| 20260902230637 | 103 | 128 | 3.0 | 5.0 | 0.00 | 0.00 | 0.00 | 26 | 1013.0 |
| 20260902230136 | 103 | 40 | 1.0 | 4.0 | 0.00 | 0.00 | 0.00 | 27 | 1013.0 |
| 20260902225631 | 103 | 297 | 3.0 | 10.0 | 0.00 | 0.00 | 0.00 | 26 | 1013.0 |
| 20260902225130 | 104 | 165 | 4.0 | 5.0 | 0.00 | 0.00 | 0.00 | 26 | 1012.8 |
| 20260902224629 | 103 | 26 | 1.0 | 5.0 | 0.00 | 0.00 | 0.00 | 26 | 1012.9 |
| 20260902224125 | 104 | 108 | 0.0 | 4.0 | 0.00 | 0.00 | 0.00 | 26 | 1012.9 |
| 20260902223621 | 103 | 316 | 2.0 | 6.0 | 0.00 | 0.00 | 0.00 | 26 | 1012.9 |
| 20260902223120 | 104 | 280 | 4.0 | 7.0 | 0.00 | 0.00 | 0.00 | 26 | 1012.9 |
| 20260902222619 | 103 | 54 | 2.0 | 3.0 | 0.00 | 0.00 | 0.00 | 26 | 1013.1 |
| 20260902222119 | 103 | 94 | 2.0 | 6.0 | 0.00 | 0.00 | 0.00 | 27 | 1013.3 |
| 20260902221613 | 103 | 73 | 2.0 | 5.0 | 0.00 | 0.00 | 0.00 | 26 | 1013.2 |
| 20260902221108 | 104 | 35 | 3.0 | 5.0 | 0.00 | 0.00 | 0.00 | 26 | 1013.2 |
| 20260902220604 | 104 | 37 | 2.0 | 5.0 | 0.00 | 0.00 | 0.00 | 26 | 1013.2 |
| 20260902220058 | 103 | 216 | 0.0 | 6.0 | 0.00 | 0.00 | 0.00 | 27 | 1013.2 |
| 20260902215554 | 104 | 91 | 2.0 | 6.0 | 0.00 | 0.00 | 0.00 | 26 | 1013.3 |
| 20260902215050 | 104 | 344 | 2.0 | 6.0 | 0.00 | 0.00 | 0.00 | 27 | 1013.5 |
| 20260902214549 | 105 | 193 | 5.0 | 6.0 | 0.00 | 0.00 | 0.00 | 26 | 1013.5 |
| 20260902214049 | 105 | 358 | 2.0 | 3.0 | 0.00 | 0.00 | 0.00 | 26 | 1013.5 |
| 20260902213544 | 105 | 49 | 4.0 | 5.0 | 0.00 | 0.00 | 0.00 | 26 | 1013.7 |
| 20260902213044 | 105 | 200 | 2.0 | 4.0 | 0.00 | 0.00 | 0.00 | 26 | 1013.5 |
| 20260902212539 | 105 | 195 | 2.0 | 3.0 | 0.00 | 0.00 | 0.00 | 26 | 1013.6 |
| 20260902212035 | 104 | 112 | 2.0 | 6.0 | 0.00 | 0.00 | 0.00 | 27 | 1013.6 |
| 20260902211532 | 105 | 220 | 3.0 | 5.0 | 0.00 | 0.00 | 0.00 | 26 | 1013.7 |
| 20260902211026 | 104 | 347 | 2.0 | 3.0 | 0.00 | 0.00 | 0.00 | 27 | 1013.8 |
| 20260902210526 | 105 | 295 | 2.0 | 3.0 | 0.00 | 0.00 | 0.00 | 27 | 1013.9 |
| 20260902210026 | 105 | 63 | 6.0 | 6.0 | 0.00 | 0.00 | 0.00 | 26 | 1013.9 |
| 20260902205520 | 104 | 308 | 1.0 | 4.0 | 0.00 | 0.00 | 0.00 | 27 | 1014.1 |
| 20260902205016 | 103 | 180 | 4.0 | 6.0 | 0.00 | 0.00 | 0.00 | 27 | 1014.1 |
| 20260902204515 | 104 | 250 | 2.0 | 6.0 | 0.00 | 0.00 | 0.00 | 27 | 1014.2 |
| 20260902204010 | 104 | 331 | 2.0 | 7.0 | 0.00 | 0.00 | 0.00 | 28 | 1014.2 |
| 20260902203506 | 104 | 79 | 2.0 | 6.0 | 0.00 | 0.00 | 0.00 | 27 | 1014.3 |
| 20260902203004 | 103 | 49 | 0.0 | 5.0 | 0.00 | 0.00 | 0.00 | 29 | 1014.2 |
| 20260902202501 | 102 | 84 | 0.0 | 4.0 | 0.00 | 0.00 | 0.00 | 29 | 1014.6 |
| 20260902201957 | 103 | 54 | 1.0 | 7.0 | 0.00 | 0.00 | 0.00 | 28 | 1014.5 |
| 20260902201457 | 103 | 125 | 2.0 | 7.0 | 0.00 | 0.00 | 0.00 | 29 | 1014.5 |
| 20260902200952 | 103 | 176 | 1.0 | 5.0 | 0.00 | 0.00 | 0.00 | 29 | 1014.7 |
| 20260902200447 | 103 | 262 | 1.0 | 4.0 | 0.00 | 0.00 | 0.00 | 29 | 1014.6 |
| 20260902195943 | 102 | 2 | 2.0 | 9.0 | 0.00 | 0.00 | 0.00 | 30 | 1014.5 |
| 20260902195438 | 102 | 163 | 2.0 | 4.0 | 0.00 | 0.00 | 0.00 | 29 | 1014.8 |
| 20260902194937 | 103 | 186 | 3.0 | 7.0 | 0.00 | 0.00 | 0.00 | 28 | 1014.7 |
| 20260902194437 | 102 | 308 | 1.0 | 3.0 | 0.00 | 0.00 | 0.00 | 29 | 1014.8 |
| 20260902193932 | 100 | 280 | 3.0 | 4.0 | 0.00 | 0.00 | 0.00 | 31 | 1014.8 |
| 20260902193428 | 102 | 220 | 6.0 | 6.0 | 0.00 | 0.00 | 0.00 | 29 | 1015.0 |
| 20260902192927 | 102 | 249 | 9.0 | 9.0 | 0.00 | 0.00 | 0.00 | 29 | 1015.2 |
| 20260902192426 | 102 | 86 | 0.0 | 5.0 | 0.00 | 0.00 | 0.00 | 29 | 1015.2 |
| 20260902191924 | 102 | 250 | 3.0 | 8.0 | 0.00 | 0.00 | 0.00 | 29 | 1015.3 |
| 20260902191420 | 102 | 240 | 10.0 | 12.0 | 0.00 | 0.00 | 0.00 | 29 | 1015.2 |
| 20260902190915 | 101 | 105 | 2.0 | 11.0 | 0.00 | 0.00 | 0.00 | 29 | 1015.3 |
| 20260902190411 | 102 | 317 | 2.0 | 7.0 | 0.00 | 0.00 | 0.00 | 29 | 1015.3 |
| 20260902185906 | 101 | 167 | 1.0 | 10.0 | 0.00 | 0.00 | 0.00 | 30 | 1015.4 |
| 20260902185402 | 101 | 237 | 4.0 | 9.0 | 0.00 | 0.00 | 0.00 | 30 | 1015.4 |
| 20260902184857 | 102 | 224 | 5.0 | 13.0 | 0.00 | 0.00 | 0.00 | 29 | 1015.5 |
| 20260902184352 | 102 | 332 | 1.0 | 4.0 | 0.00 | 0.00 | 0.00 | 30 | 1015.8 |
| 20260902183848 | 101 | 225 | 2.0 | 13.0 | 0.00 | 0.00 | 0.00 | 31 | 1015.8 |
| 20260902183344 | 101 | 198 | 4.0 | 8.0 | 0.00 | 0.00 | 0.00 | 30 | 1016.0 |
| 20260902182840 | 100 | 249 | 3.0 | 6.0 | 0.00 | 0.00 | 0.00 | 32 | 1015.8 |
| 20260902182336 | 100 | 151 | 2.0 | 8.0 | 0.00 | 0.00 | 0.00 | 32 | 1016.3 |
| 20260902181833 | 101 | 223 | 5.0 | 8.0 | 0.00 | 0.00 | 0.00 | 32 | 1016.1 |
| 20260902181328 | 100 | 248 | 8.0 | 9.0 | 0.00 | 0.00 | 0.00 | 33 | 1016.1 |
| 20260902180827 | 99 | 241 | 3.0 | 10.0 | 0.00 | 0.00 | 0.00 | 33 | 1016.2 |
| 20260902180323 | 100 | 253 | 2.0 | 7.0 | 0.00 | 0.00 | 0.00 | 32 | 1016.2 |
| 20260902175818 | 99 | 300 | 4.0 | 9.0 | 0.00 | 0.00 | 0.00 | 34 | 1016.1 |
| 20260902175313 | 100 | 226 | 2.0 | 12.0 | 0.00 | 0.00 | 0.00 | 33 | 1016.2 |
| 20260902174809 | 99 | 248 | 1.0 | 7.0 | 0.00 | 0.00 | 0.00 | 34 | 1016.5 |
| 20260902174306 | 98 | 223 | 2.0 | 11.0 | 0.00 | 0.00 | 0.00 | 34 | 1016.4 |
| 20260902173801 | 98 | 184 | 3.0 | 10.0 | 0.00 | 0.00 | 0.00 | 36 | 1016.6 |
| 20260902173301 | 98 | 213 | 6.0 | 8.0 | 0.00 | 0.00 | 0.00 | 35 | 1016.3 |
| 20260902172755 | 98 | 231 | 4.0 | 7.0 | 0.00 | 0.00 | 0.00 | 35 | 1016.7 |
| 20260902172255 | 98 | 232 | 5.0 | 10.0 | 0.00 | 0.00 | 0.00 | 35 | 1016.8 |
| 20260902171750 | 99 | 232 | 7.0 | 10.0 | 0.00 | 0.00 | 0.00 | 35 | 1016.7 |
| 20260902171245 | 98 | 162 | 3.0 | 6.0 | 0.00 | 0.00 | 0.00 | 36 | 1016.8 |
| 20260902170742 | 98 | 246 | 4.0 | 8.0 | 0.00 | 0.00 | 0.00 | 35 | 1017.0 |
| 20260902170237 | 97 | 211 | 3.0 | 8.0 | 0.00 | 0.00 | 0.00 | 37 | 1017.0 |
| 20260902165732 | 97 | 180 | 3.0 | 5.0 | 0.00 | 0.00 | 0.00 | 37 | 1017.1 |
| 20260902165231 | 97 | 226 | 2.0 | 9.0 | 0.00 | 0.00 | 0.00 | 38 | 1016.7 |
| 20260902164727 | 97 | 232 | 2.0 | 7.0 | 0.00 | 0.00 | 0.00 | 38 | 1017.2 |
| 20260902164227 | 96 | 221 | 5.0 | 7.0 | 0.00 | 0.00 | 0.00 | 38 | 1017.3 |
| 20260902163722 | 95 | 80 | 1.0 | 10.0 | 0.00 | 0.00 | 0.00 | 39 | 1017.3 |
| 20260902163221 | 95 | 213 | 6.0 | 10.0 | 0.00 | 0.00 | 0.00 | 39 | 1017.4 |
| 20260902162720 | 95 | 180 | 2.0 | 12.0 | 0.00 | 0.00 | 0.00 | 39 | 1017.4 |
| 20260902162215 | 94 | 256 | 2.0 | 10.0 | 0.00 | 0.00 | 0.00 | 41 | 1017.4 |
| 20260902161709 | 94 | 220 | 3.0 | 7.0 | 0.00 | 0.00 | 0.00 | 41 | 1017.5 |
| 20260902161205 | 94 | 213 | 7.0 | 14.0 | 0.00 | 0.00 | 0.00 | 41 | 1017.6 |
| 20260902160702 | 94 | 226 | 2.0 | 6.0 | 0.00 | 0.00 | 0.00 | 41 | 1017.5 |
| 20260902160156 | 93 | 267 | 2.0 | 9.0 | 0.00 | 0.00 | 0.00 | 42 | 1017.7 |
| 20260902155654 | 93 | 240 | 3.0 | 10.0 | 0.00 | 0.00 | 0.00 | 42 | 1017.5 |
| 20260902155153 | 92 | 146 | 2.0 | 6.0 | 0.00 | 0.00 | 0.00 | 43 | 1017.7 |
| 20260902154649 | 93 | 192 | 3.0 | 9.0 | 0.00 | 0.00 | 0.00 | 43 | 1017.4 |
| 20260902154148 | 92 | 162 | 3.0 | 10.0 | 0.00 | 0.00 | 0.00 | 43 | 1017.6 |
| 20260902153648 | 92 | 232 | 9.0 | 10.0 | 0.00 | 0.00 | 0.00 | 43 | 1017.6 |
| 20260902153143 | 91 | 201 | 6.0 | 8.0 | 0.00 | 0.00 | 0.00 | 44 | 1017.5 |
| 20260902152640 | 91 | 165 | 5.0 | 14.0 | 0.00 | 0.00 | 0.00 | 45 | 1017.6 |
| 20260902152135 | 91 | 242 | 0.0 | 5.0 | 0.00 | 0.00 | 0.00 | 45 | 1017.6 |
| 20260902151631 | 90 | 251 | 3.0 | 5.0 | 0.00 | 0.00 | 0.00 | 46 | 1017.5 |
| 20260902151131 | 89 | 184 | 7.0 | 8.0 | 0.00 | 0.00 | 0.00 | 46 | 1017.6 |
| 20260902150626 | 89 | 191 | 2.0 | 7.0 | 0.00 | 0.00 | 0.00 | 47 | 1017.5 |
| 20260902150122 | 89 | 233 | 2.0 | 8.0 | 0.00 | 0.00 | 0.00 | 47 | 1017.6 |
| 20260902145621 | 88 | 294 | 1.0 | 8.0 | 0.00 | 0.00 | 0.00 | 47 | 1017.6 |
| 20260902145121 | 88 | 175 | 3.0 | 6.0 | 0.00 | 0.00 | 0.00 | 48 | 1017.5 |
| 20260902144618 | 87 | 206 | 0.0 | 6.0 | 0.00 | 0.00 | 0.00 | 49 | 1017.5 |
| 20260902144118 | 87 | 224 | 3.0 | 6.0 | 0.00 | 0.00 | 0.00 | 49 | 1017.7 |
| 20260902143613 | 86 | 71 | 1.0 | 7.0 | 0.00 | 0.00 | 0.00 | 51 | 1017.6 |
| 20260902143108 | 85 | 229 | 2.0 | 9.0 | 0.00 | 0.00 | 0.00 | 51 | 1017.7 |
| 20260902142605 | 84 | 198 | 0.0 | 6.0 | 0.00 | 0.00 | 0.00 | 53 | 1017.8 |
| 20260902142059 | 83 | 216 | 2.0 | 4.0 | 0.00 | 0.00 | 0.00 | 54 | 1017.8 |
| 20260902141559 | 83 | 293 | 0.0 | 6.0 | 0.00 | 0.00 | 0.00 | 55 | 1017.6 |
| 20260902141055 | 83 | 268 | 2.0 | 4.0 | 0.00 | 0.00 | 0.00 | 55 | 1017.6 |
| 20260902140549 | 82 | 230 | 2.0 | 3.0 | 0.00 | 0.00 | 0.00 | 56 | 1017.6 |
| 20260902140045 | 82 | 183 | 2.0 | 7.0 | 0.00 | 0.00 | 0.00 | 56 | 1017.7 |
| 20260902135544 | 82 | 242 | 1.0 | 3.0 | 0.00 | 0.00 | 0.00 | 57 | 1017.7 |
| 20260902135044 | 81 | 224 | 1.0 | 6.0 | 0.00 | 0.00 | 0.00 | 57 | 1017.5 |
| 20260902134541 | 81 | 124 | 2.0 | 4.0 | 0.00 | 0.00 | 0.00 | 58 | 1017.7 |
| 20260902134040 | 80 | 209 | 4.0 | 6.0 | 0.00 | 0.00 | 0.00 | 58 | 1017.4 |
| 20260902133535 | 80 | 260 | 0.0 | 5.0 | 0.00 | 0.00 | 0.00 | 59 | 1017.4 |
| 20260902133035 | 79 | 209 | 2.0 | 4.0 | 0.00 | 0.00 | 0.00 | 60 | 1017.5 |
| 20260902132531 | 79 | 218 | 3.0 | 6.0 | 0.00 | 0.00 | 0.00 | 60 | 1017.4 |
| 20260902132026 | 78 | 299 | 0.0 | 3.0 | 0.00 | 0.00 | 0.00 | 61 | 1017.5 |
| 20260902131522 | 78 | 285 | 2.0 | 4.0 | 0.00 | 0.00 | 0.00 | 62 | 1017.5 |
| 20260902131022 | 77 | 247 | 1.0 | 4.0 | 0.00 | 0.00 | 0.00 | 62 | 1017.6 |
| 20260902130518 | 77 | 283 | 0.0 | 4.0 | 0.00 | 0.00 | 0.00 | 63 | 1017.2 |
| 20260902130013 | 76 | 189 | 3.0 | 3.0 | 0.00 | 0.00 | 0.00 | 63 | 1017.5 |
| 20260902125509 | 76 | 255 | 1.0 | 4.0 | 0.00 | 0.00 | 0.00 | 64 | 1017.3 |